TimeEDT,TemperatureF,Dew PointF,Humidity,Sea Level PressureIn,VisibilityMPH,Wind Direction,Wind SpeedMPH,Gust SpeedMPH,PrecipitationIn,Events,Conditions,WindDirDegrees,DateUTC
12:15 AM,75.7,75.0,98,29.90,10.0,Calm,Calm,-,N/A,,Scattered Clouds,0,2013-07-21 04:15:00
12:35 AM,74.8,74.7,99,29.91,10.0,Calm,Calm,-,N/A,,Clear,0,2013-07-21 04:35:00
12:55 AM,74.1,74.1,100,29.90,10.0,Calm,Calm,-,N/A,,Clear,0,2013-07-21 04:55:00
1:15 AM,73.6,73.6,100,29.91,10.0,Calm,Calm,-,N/A,,Clear,0,2013-07-21 05:15:00
1:35 AM,74.7,74.7,100,29.91,10.0,Calm,Calm,-,N/A,,Clear,0,2013-07-21 05:35:00
1:55 AM,73.9,73.9,100,29.91,10.0,Calm,Calm,-,N/A,,Clear,0,2013-07-21 05:55:00
2:15 AM,73.4,73.4,100,29.91,10.0,Calm,Calm,-,N/A,,Clear,0,2013-07-21 06:15:00
2:35 AM,72.5,72.5,100,29.91,7.0,Calm,Calm,-,N/A,,Clear,0,2013-07-21 06:35:00
2:55 AM,72.5,72.5,100,29.90,10.0,Calm,Calm,-,N/A,,Clear,0,2013-07-21 06:55:00
3:15 AM,72.5,72.5,100,29.90,7.0,Calm,Calm,-,N/A,,Clear,0,2013-07-21 07:15:00
3:35 AM,72.9,72.9,100,29.90,10.0,Calm,Calm,-,N/A,,Clear,0,2013-07-21 07:35:00
3:55 AM,72.3,72.3,100,29.90,7.0,Calm,Calm,-,N/A,,Clear,0,2013-07-21 07:55:00
4:15 AM,72.1,72.1,100,29.90,7.0,Calm,Calm,-,N/A,,Clear,0,2013-07-21 08:15:00
4:35 AM,71.6,71.6,100,29.90,2.5,Calm,Calm,-,N/A,,Clear,0,2013-07-21 08:35:00
4:55 AM,71.4,71.4,100,29.90,5.0,Calm,Calm,-,N/A,,Clear,0,2013-07-21 08:55:00
5:15 AM,71.6,71.6,100,29.91,5.0,Calm,Calm,-,N/A,,Clear,0,2013-07-21 09:15:00
5:35 AM,71.2,71.2,100,29.91,5.0,Calm,Calm,-,N/A,,Clear,0,2013-07-21 09:35:00
5:55 AM,70.7,70.7,100,29.92,0.8,Calm,Calm,-,N/A,,Mist,0,2013-07-21 09:55:00
6:15 AM,70.2,70.2,100,29.92,0.2,Calm,Calm,-,N/A,Fog,Fog,0,2013-07-21 10:15:00
6:35 AM,71.2,71.2,100,29.93,4.0,Calm,Calm,-,N/A,,Clear,0,2013-07-21 10:35:00
6:55 AM,72.3,72.3,100,29.93,4.0,Calm,Calm,-,N/A,,Clear,0,2013-07-21 10:55:00
7:15 AM,73.6,73.6,100,29.93,7.0,Calm,Calm,-,N/A,,Clear,0,2013-07-21 11:15:00
7:35 AM,75.2,75.2,100,29.93,10.0,Calm,Calm,-,N/A,,Clear,0,2013-07-21 11:35:00
7:55 AM,76.3,76.3,100,29.94,10.0,WNW,3.5,-,N/A,,Clear,300,2013-07-21 11:55:00
8:15 AM,77.5,76.1,95,29.94,10.0,Calm,Calm,-,N/A,,Clear,0,2013-07-21 12:15:00
8:35 AM,79.9,76.8,90,29.94,10.0,Calm,Calm,-,N/A,,Clear,0,2013-07-21 12:35:00
8:55 AM,81.0,77.5,89,29.95,10.0,Calm,Calm,-,N/A,,Clear,0,2013-07-21 12:55:00
9:15 AM,81.3,76.8,86,29.95,10.0,Calm,Calm,-,N/A,,Clear,0,2013-07-21 13:15:00
9:35 AM,83.7,78.1,83,29.95,10.0,Calm,Calm,-,N/A,,Clear,0,2013-07-21 13:35:00
9:55 AM,85.5,77.9,78,29.95,10.0,Calm,Calm,-,N/A,,Clear,0,2013-07-21 13:55:00
10:15 AM,85.1,75.6,73,29.95,10.0,Calm,Calm,-,N/A,,Clear,0,2013-07-21 14:15:00
10:35 AM,86.9,75.9,70,29.95,10.0,Calm,Calm,-,N/A,,Clear,0,2013-07-21 14:35:00
10:55 AM,87.8,75.6,67,29.96,10.0,Calm,Calm,-,N/A,,Clear,0,2013-07-21 14:55:00
11:15 AM,87.6,75.4,67,29.96,10.0,Calm,Calm,-,N/A,,Clear,0,2013-07-21 15:15:00
11:35 AM,88.5,75.6,65,29.96,10.0,Calm,Calm,-,N/A,,Clear,0,2013-07-21 15:35:00
11:55 AM,89.4,76.6,66,29.96,10.0,ENE,3.5,-,N/A,,Clear,70,2013-07-21 15:55:00
12:15 PM,89.1,75.6,64,29.96,10.0,Calm,Calm,-,N/A,,Clear,0,2013-07-21 16:15:00
12:35 PM,90.3,76.6,64,29.96,10.0,South,3.5,-,N/A,,Clear,180,2013-07-21 16:35:00
12:55 PM,89.8,75.6,63,29.95,10.0,Calm,Calm,-,N/A,,Clear,0,2013-07-21 16:55:00
1:15 PM,91.0,77.4,64,29.95,10.0,SE,3.5,-,N/A,,Clear,130,2013-07-21 17:15:00
2:06 PM,91.4,78.8,66,29.94,10.0,SSW,5.8,-,N/A,,Mostly Cloudy,200,2013-07-21 18:06:00
2:15 PM,91.6,77.7,64,29.94,10.0,Calm,Calm,-,N/A,,Scattered Clouds,0,2013-07-21 18:15:00
2:35 PM,90.9,77.4,64,29.92,10.0,South,3.5,-,N/A,,Scattered Clouds,190,2013-07-21 18:35:00
2:55 PM,90.0,76.8,65,29.93,10.0,Calm,Calm,-,N/A,,Scattered Clouds,0,2013-07-21 18:55:00
3:15 PM,88.9,79.9,75,29.93,10.0,Calm,Calm,-,N/A,,Mostly Cloudy,0,2013-07-21 19:15:00
3:35 PM,84.6,80.4,87,29.93,7.0,East,5.8,-,N/A,Rain,Heavy Rain,80,2013-07-21 19:35:00
3:55 PM,81.1,76.8,87,29.93,10.0,NNE,5.8,-,N/A,Rain-Thunderstorm,Light Thunderstorms and Rain,30,2013-07-21 19:55:00
4:15 PM,78.3,75.4,91,29.95,10.0,West,18.4,24.2,0.01,Thunderstorm,Thunderstorm,280,2013-07-21 20:15:00
4:35 PM,74.8,74.5,99,29.98,7.0,SW,8.1,16.1,0.01,Rain-Thunderstorm,Thunderstorms and Rain,230,2013-07-21 20:35:00
4:55 PM,74.3,74.3,100,29.94,1.5,NW,4.6,-,0.01,Rain-Thunderstorm,Heavy Thunderstorms and Rain,310,2013-07-21 20:55:00
5:15 PM,76.5,76.5,100,29.90,7.0,NNE,3.5,-,N/A,Rain,Light Rain,30,2013-07-21 21:15:00
5:35 PM,78.8,77.4,95,29.89,10.0,Calm,Calm,-,0.01,,Scattered Clouds,0,2013-07-21 21:35:00
5:55 PM,80.2,76.5,88,29.88,10.0,Calm,Calm,-,0.01,,Clear,0,2013-07-21 21:55:00
6:15 PM,82.0,76.5,83,29.90,10.0,Calm,Calm,-,N/A,,Clear,0,2013-07-21 22:15:00
6:35 PM,81.5,78.3,90,29.91,10.0,West,3.5,-,0.01,,Clear,260,2013-07-21 22:35:00
6:55 PM,79.5,77.9,95,29.93,10.0,Calm,Calm,-,0.01,,Scattered Clouds,0,2013-07-21 22:55:00
7:15 PM,79.2,78.1,96,29.94,10.0,Calm,Calm,-,0.01,,Scattered Clouds,0,2013-07-21 23:15:00
7:35 PM,78.8,77.9,97,29.94,10.0,Calm,Calm,-,0.01,,Overcast,0,2013-07-21 23:35:00
7:55 PM,77.9,77.0,97,29.94,10.0,Calm,Calm,-,0.01,,Mostly Cloudy,0,2013-07-21 23:55:00
8:15 PM,77.2,77.0,99,29.94,10.0,Calm,Calm,-,N/A,,Clear,0,2013-07-22 00:15:00
8:35 PM,76.1,76.1,100,29.94,10.0,Calm,Calm,-,N/A,,Clear,0,2013-07-22 00:35:00
8:55 PM,75.2,75.2,100,29.94,10.0,SE,3.5,-,N/A,,Clear,130,2013-07-22 00:55:00
9:15 PM,74.7,74.7,100,29.94,7.0,Calm,Calm,-,N/A,,Clear,0,2013-07-22 01:15:00
9:35 PM,74.3,74.3,100,29.95,5.0,Calm,Calm,-,N/A,,Clear,0,2013-07-22 01:35:00
9:55 PM,73.8,73.8,100,29.95,5.0,Calm,Calm,-,N/A,,Clear,0,2013-07-22 01:55:00
10:15 PM,73.9,73.9,100,29.96,4.0,Calm,Calm,-,N/A,,Clear,0,2013-07-22 02:15:00
10:35 PM,74.3,74.3,100,29.97,7.0,Calm,Calm,-,N/A,,Mostly Cloudy,0,2013-07-22 02:35:00
10:55 PM,73.6,73.6,100,29.95,1.5,Calm,Calm,-,N/A,,Mostly Cloudy,0,2013-07-22 02:55:00
11:15 PM,73.6,73.6,100,29.95,1.2,Calm,Calm,-,N/A,,Mist,0,2013-07-22 03:15:00
11:35 PM,73.4,73.4,100,29.94,5.0,Calm,Calm,-,N/A,,Clear,0,2013-07-22 03:35:00
11:55 PM,73.6,73.6,100,29.95,7.0,Calm,Calm,-,N/A,,Clear,0,2013-07-22 03:55:00